Wind_Speed
44 44 44 43 43 43 44 48 52 54 55 57 59 59 60 59 56 57 57 58 60 59 58 57 59 59 58 58 56 54 53 52 51 52 52 54 59 60 57 59 60 58 56
49 47 47 46 47 48 47 48 48 49 51 52 53 56 58 60 59 57 58 58 60 62 62 59 60 58 59 56 56 56 51 52 53 51 54 59 58 54 58 60 59 61 55
54 54 55 55 55 54 52 52 55 55 54 54 56 57 57 57 59 61 63 64 62 62 62 60 58 55 54 57 58 56 51 59 53 57 57 57 55 53 57 59 60 57 55
49 51 53 55 56 53 53 53 51 52 54 56 57 58 59 57 57 59 61 57 60 62 63 64 64 63 58 57 54 56 62 54 57 58 56 55 52 54 59 58 61 55 56
52 51 49 48 50 50 48 49 49 51 50 51 52 54 57 58 58 52 51 52 55 58 59 59 59 60 60 58 58 57 57 54 54 55 57 56 53 58 60 59 58 54 58
52 51 49 48 48 49 51 54 53 52 53 52 54 54 54 53 58 55 62 62 62 65 59 57 55 57 62 60 50 58 54 57 58 59 58 54 55 57 60 56 55 57 59
52 49 46 47 48 50 53 55 55 54 53 54 52 52 53 54 52 55 51 49 49 52 54 56 50 52 49 52 54 54 58 61 58 56 53 56 59 60 61 56 56 61 59
47 47 47 49 52 52 54 56 55 56 56 56 57 54 53 52 56 54 53 52 49 49 52 50 52 51 59 62 60 54 55 54 54 56 60 57 61 62 60 57 62 60 58
47 48 49 50 52 53 54 55 55 55 54 52 50 51 51 50 52 52 49 47 46 45 46 50 52 51 52 54 57 57 56 55 60 61 61 62 64 65 63 64 65 60 57
40 40 40 40 41 43 43 45 46 47 46 44 45 46 48 49 49 48 50 52 51 50 43 45 51 51 58 55 54 55 57 61 60 59 57 62 65 64 66 67 66 60 57
36 38 38 39 39 40 43 44 46 47 45 43 42 42 42 42 42 44 44 43 44 44 44 45 50 52 53 53 57 56 58 58 58 59 52 69 70 69 68 65 64 59 57
35 34 34 35 35 37 37 37 38 39 39 39 40 40 40 39 39 40 40 41 42 43 46 48 49 53 54 55 55 55 56 56 53 52 67 69 66 65 64 65 62 58 57
34 35 36 37 39 40 41 42 42 41 39 38 38 38 39 39 39 40 41 42 42 40 39 41 42 42 43 50 55 55 55 53 53 58 61 66 66 64 63 63 60 59 56
34 35 35 36 36 38 39 39 38 38 37 37 38 39 40 41 42 43 45 45 45 45 47 48 48 48 49 50 53 54 55 57 61 63 64 64 65 65 62 62 60 60 58
36 36 36 37 37 37 37 36 36 37 39 39 40 42 43 45 45 46 47 48 48 50 52 53 52 53 55 55 57 59 61 64 66 67 66 66 67 65 61 59 56 56 53
40 39 41 41 43 41 39 39 39 40 41 42 44 47 49 49 51 52 53 55 56 58 58 57 58 60 61 63 63 65 67 69 70 72 71 69 67 67 65 58 56 56 51
49 47 44 47 49 49 48 49 49 47 47 49 50 50 52 54 56 58 59 61 61 61 60 61 64 66 68 69 71 72 73 76 76 77 77 75 72 72 68 62 60 57 52
55 56 57 52 52 54 54 54 54 54 55 57 57 60 59 60 61 62 64 65 67 69 69 69 71 73 75 76 77 77 77 78 79 79 78 77 74 75 74 71 68 62 56
57 58 59 63 60 58 58 57 59 60 61 62 64 65 67 67 68 70 71 72 74 75 76 76 78 79 80 81 81 81 81 79 79 79 78 77 77 78 77 75 74 63 59
61 62 63 63 65 65 65 64 65 65 66 68 69 70 72 74 75 77 79 79 80 81 81 82 81 81 81 80 79 79 78 78 77 77 76 77 77 77 77 76 74 68 65
64 65 66 68 69 70 70 71 72 73 74 75 77 77 78 80 81 83 84 86 83 83 84 83 83 84 83 82 80 79 80 79 78 78 78 78 79 79 78 77 75 75 73
70 72 73 75 75 76 76 77 78 79 81 82 83 83 84 85 85 85 85 87 87 87 86 85 85 83 82 82 82 82 82 82 81 81 81 79 80 79 77 75 74 74 74
77 77 78 78 79 81 82 83 83 84 86 87 87 87 87 87 88 89 89 89 88 88 88 87 86 85 84 84 84 83 82 82 82 81 80 79 79 79 78 78 78 79 80
79 81 81 82 82 83 84 86 87 88 88 88 89 89 90 91 90 89 90 90 89 88 87 87 87 86 85 84 82 79 79 78 77 76 78 78 77 77 77 76 76 76 76
82 83 83 84 84 85 86 88 89 89 89 90 90 89 88 89 90 91 91 90 90 89 89 88 86 84 82 80 78 75 74 73 73 74 75 75 75 74 73 73 72 72 70
84 84 84 85 86 88 89 89 90 90 90 89 90 90 90 90 91 91 91 91 91 90 89 88 85 81 76 71 68 65 66 66 66 64 64 63 62 61 60 60 59 57 56
Wind_Direction
268 268 268 268 270 271 272 274 274 276 279 280 280 280 282 283 285 286 288 288 287 287 288 290 291 292 293 295 297 297 297 298 298 299 299 299 298 307 311 313 311 314 311
271 273 272 272 271 272 274 273 271 273 276 279 280 281 284 285 285 286 288 290 292 292 293 291 291 291 293 294 293 293 292 294 297 296 293 300 301 308 312 311 310 314 310
273 275 274 274 275 277 276 273 274 278 280 280 280 281 282 282 285 289 285 286 286 290 290 291 290 292 293 293 294 290 289 298 295 295 294 298 306 309 310 309 310 309 311
277 278 279 277 278 279 275 273 273 274 275 277 279 280 281 280 282 284 284 284 287 286 288 289 292 291 289 290 292 291 292 296 290 294 300 304 307 308 309 306 306 308 312
276 279 282 283 283 278 275 277 276 276 274 275 278 282 284 288 288 280 283 284 286 287 286 287 288 290 283 292 293 292 289 289 289 295 301 303 308 306 307 306 307 309 311
280 281 281 278 276 275 275 274 272 273 273 276 279 281 282 283 286 293 285 279 278 278 278 282 285 286 287 284 285 286 287 287 288 291 299 304 305 302 305 305 305 309 310
279 277 274 274 273 269 266 266 267 270 273 275 278 280 282 286 286 293 296 286 285 286 288 282 283 282 282 291 287 287 285 288 290 295 301 305 299 304 303 305 306 307 307
271 269 267 267 266 266 267 267 269 271 274 278 280 280 281 283 285 287 286 284 280 282 286 286 272 274 276 277 277 287 292 291 295 297 302 302 299 303 301 306 306 306 305
278 276 274 273 274 275 276 277 282 284 286 287 289 288 289 288 286 285 282 285 287 288 292 281 284 288 290 286 286 292 293 293 296 299 300 301 300 302 298 305 306 305 302
286 287 286 286 285 283 282 284 286 285 288 292 291 292 293 293 293 291 289 288 286 285 296 271 284 290 290 291 298 293 291 295 296 300 299 302 301 303 302 301 303 302 298
288 289 290 290 290 289 289 289 291 294 296 296 294 294 295 295 295 292 293 293 291 293 292 292 286 292 293 289 296 295 295 297 301 306 307 300 299 300 302 301 300 299 295
288 288 287 287 287 287 287 287 285 287 288 290 291 293 293 293 294 295 294 294 291 291 289 288 289 292 292 281 292 296 299 298 297 301 300 295 297 298 298 298 297 296 293
282 283 283 283 283 282 284 286 287 288 289 288 289 289 292 294 296 296 296 297 298 297 294 292 291 290 287 289 291 293 294 293 290 288 290 292 297 296 296 295 296 293 289
277 278 279 281 281 282 283 283 284 286 288 288 289 290 292 293 294 294 294 293 292 293 292 289 289 288 289 289 290 290 289 290 290 293 293 295 295 296 297 296 294 292 291
275 275 276 276 276 277 278 279 281 284 285 286 287 288 290 292 293 294 294 294 294 294 295 293 292 290 290 290 290 290 290 291 295 294 294 295 295 295 294 294 294 293 289
276 275 275 274 277 279 278 277 279 280 283 285 289 292 294 294 294 294 294 295 294 294 294 292 292 291 291 291 291 292 292 293 293 293 292 292 292 292 293 296 292 289 285
283 281 280 284 285 287 287 287 287 286 288 289 288 288 290 291 291 291 292 293 294 293 291 289 290 289 289 289 289 290 290 291 291 291 291 291 289 290 292 290 289 289 284
285 286 286 283 283 283 286 286 288 289 290 290 290 291 289 288 289 289 290 290 289 290 291 290 290 290 290 289 289 288 288 288 287 287 287 286 286 287 289 290 291 287 279
282 282 285 286 285 285 286 287 289 289 289 290 290 291 292 291 290 290 290 289 289 289 289 289 289 289 288 288 288 288 287 287 286 286 286 286 285 286 286 288 288 288 278
281 282 284 284 285 286 286 286 285 286 287 288 289 290 289 289 289 289 289 287 288 288 289 289 289 290 289 289 288 288 288 288 288 288 287 286 286 285 285 285 285 283 280
281 281 281 281 284 285 286 287 288 288 288 288 288 287 287 287 288 288 287 288 289 289 289 290 291 291 292 292 291 291 290 288 287 286 285 284 283 283 282 282 281 280 280
280 281 282 284 285 286 286 286 287 287 288 288 288 288 288 288 288 288 289 290 291 292 294 295 295 294 293 292 290 289 287 286 286 284 283 281 280 279 278 277 276 275 275
280 281 281 282 283 285 286 286 286 287 288 288 288 289 290 290 290 291 293 294 295 296 295 295 294 292 291 290 289 288 286 285 283 282 281 280 279 278 277 276 274 273 273
281 282 282 283 283 284 284 285 285 285 287 288 289 289 290 291 293 295 295 296 296 294 293 293 293 292 292 291 289 287 286 284 282 280 279 279 278 278 277 276 276 275 274
280 281 282 282 282 282 283 284 285 287 288 289 290 292 293 294 295 295 294 293 293 293 293 293 293 292 292 291 290 288 285 282 280 278 277 277 278 279 279 279 278 278 278
279 279 279 280 281 283 284 285 287 289 291 293 295 295 294 293 293 293 293 294 295 295 295 295 295 295 293 289 285 283 283 284 284 284 284 283 283 283 284 283 282 281 280
Height
5797 5797 5797 5796 5795 5793 5793 5793 5791 5790 5789 5787 5784 5781 5778 5776 5774 5771 5768 5764 5761 5758 5756 5751 5747 5742 5738 5734 5729 5725 5721 5716 5711 5706 5701 5696 5689 5684 5677 5670 5663 5656 5648
5787 5787 5787 5786 5784 5783 5782 5780 5777 5775 5774 5772 5770 5768 5765 5763 5761 5758 5755 5752 5747 5744 5740 5738 5735 5730 5726 5721 5717 5712 5708 5704 5699 5694 5689 5684 5680 5673 5666 5659 5652 5643 5637
5774 5774 5773 5773 5772 5770 5769 5767 5765 5764 5762 5760 5757 5754 5751 5748 5746 5744 5741 5738 5736 5730 5728 5724 5720 5718 5713 5709 5705 5700 5696 5691 5686 5681 5676 5672 5669 5663 5656 5648 5642 5633 5625
5763 5762 5761 5760 5758 5757 5755 5753 5750 5748 5746 5744 5742 5740 5737 5734 5731 5729 5725 5723 5720 5717 5714 5709 5707 5704 5699 5697 5693 5688 5684 5679 5675 5670 5665 5661 5657 5652 5645 5637 5631 5623 5614
5750 5748 5747 5747 5745 5744 5742 5740 5737 5735 5732 5730 5727 5725 5723 5720 5717 5714 5712 5710 5706 5703 5700 5697 5693 5689 5683 5679 5677 5673 5669 5665 5663 5658 5655 5650 5644 5639 5633 5625 5618 5611 5603
5736 5736 5735 5733 5732 5730 5728 5726 5723 5721 5719 5718 5715 5712 5710 5707 5704 5700 5695 5692 5689 5687 5684 5681 5677 5676 5671 5669 5664 5662 5658 5653 5650 5646 5642 5637 5632 5626 5621 5614 5607 5599 5593
5722 5721 5720 5718 5717 5715 5713 5710 5709 5707 5704 5702 5699 5697 5695 5694 5690 5686 5682 5680 5676 5674 5671 5668 5665 5662 5656 5653 5650 5648 5645 5640 5636 5633 5630 5625 5619 5613 5607 5601 5595 5587 5580
5709 5707 5705 5704 5702 5700 5699 5697 5694 5692 5689 5687 5684 5682 5680 5677 5675 5673 5669 5665 5663 5660 5657 5654 5656 5649 5645 5641 5638 5635 5631 5627 5623 5620 5617 5612 5606 5600 5595 5589 5583 5576 5568
5694 5693 5692 5690 5689 5687 5686 5684 5681 5679 5676 5673 5671 5669 5665 5662 5660 5656 5654 5651 5649 5646 5644 5642 5640 5636 5632 5629 5627 5622 5620 5616 5612 5607 5603 5598 5592 5586 5580 5576 5570 5564 5557
5681 5680 5680 5678 5677 5675 5673 5671 5669 5666 5663 5661 5656 5655 5651 5649 5647 5644 5641 5639 5635 5633 5630 5625 5624 5624 5620 5618 5614 5610 5607 5603 5599 5595 5589 5585 5578 5572 5567 5561 5554 5550 5544
5669 5668 5667 5666 5664 5663 5661 5659 5658 5655 5652 5650 5646 5643 5640 5637 5634 5632 5628 5626 5624 5621 5620 5617 5615 5611 5607 5605 5601 5597 5593 5589 5585 5581 5575 5569 5562 5557 5550 5545 5539 5534 5529
5658 5656 5655 5654 5652 5651 5649 5647 5645 5643 5640 5637 5635 5631 5628 5625 5623 5620 5616 5612 5610 5607 5605 5603 5600 5597 5593 5590 5588 5582 5579 5575 5569 5565 5560 5551 5546 5540 5535 5529 5524 5519 5514
5648 5646 5644 5643 5641 5639 5637 5635 5633 5631 5629 5626 5623 5620 5618 5615 5612 5608 5605 5602 5598 5596 5593 5590 5587 5583 5580 5577 5572 5567 5563 5559 5554 5547 5542 5536 5529 5524 5519 5513 5507 5503 5499
5636 5635 5633 5631 5630 5628 5626 5623 5621 5619 5617 5615 5613 5610 5606 5603 5600 5597 5594 5591 5587 5584 5580 5577 5573 5570 5566 5562 5557 5552 5547 5542 5536 5532 5526 5520 5513 5508 5503 5497 5492 5487 5484
5624 5623 5621 5620 5618 5616 5614 5612 5610 5608 5606 5603 5600 5597 5594 5590 5586 5584 5581 5578 5575 5571 5568 5563 5559 5554 5550 5545 5540 5534 5529 5524 5520 5515 5509 5504 5498 5492 5486 5481 5478 5473 5470
5614 5612 5612 5609 5607 5605 5602 5599 5597 5594 5591 5588 5586 5584 5581 5578 5574 5571 5568 5564 5560 5557 5554 5547 5543 5538 5533 5528 5523 5518 5513 5508 5502 5496 5491 5487 5482 5476 5471 5466 5462 5458 5454
5604 5601 5597 5597 5595 5593 5590 5588 5584 5581 5578 5576 5573 5569 5565 5562 5558 5554 5551 5549 5545 5540 5536 5531 5526 5520 5515 5510 5505 5498 5494 5488 5483 5478 5473 5468 5463 5458 5454 5450 5444 5441 5437
5592 5590 5587 5582 5579 5577 5575 5573 5570 5566 5564 5562 5558 5555 5550 5546 5541 5536 5533 5529 5524 5520 5517 5514 5509 5502 5497 5490 5484 5478 5473 5467 5463 5458 5453 5448 5443 5438 5435 5431 5427 5423 5418
5575 5573 5570 5571 5566 5563 5561 5558 5555 5551 5548 5543 5540 5538 5534 5529 5523 5519 5515 5510 5505 5500 5494 5490 5485 5480 5473 5467 5462 5456 5451 5446 5441 5436 5431 5427 5422 5418 5415 5412 5408 5405 5400
5558 5556 5555 5553 5551 5549 5545 5542 5538 5534 5531 5527 5522 5518 5514 5509 5504 5499 5493 5488 5482 5478 5473 5468 5462 5457 5451 5445 5438 5432 5427 5422 5418 5413 5408 5403 5398 5394 5391 5389 5387 5384 5381
5540 5538 5535 5533 5531 5527 5524 5520 5517 5513 5509 5505 5500 5496 5492 5487 5482 5476 5471 5465 5459 5453 5448 5442 5438 5432 5427 5420 5413 5407 5402 5397 5392 5388 5383 5378 5373 5369 5365 5363 5361 5357 5355
5519 5517 5514 5512 5509 5506 5502 5498 5494 5490 5486 5481 5476 5471 5467 5462 5457 5452 5446 5440 5434 5428 5422 5417 5411 5405 5400 5394 5388 5382 5375 5370 5365 5360 5356 5352 5348 5344 5341 5339 5336 5334 5332
5498 5495 5492 5489 5486 5482 5478 5475 5470 5466 5462 5457 5453 5447 5442 5437 5431 5425 5420 5414 5409 5403 5396 5389 5383 5377 5371 5365 5360 5353 5347 5343 5338 5332 5328 5324 5322 5319 5316 5314 5312 5310 5308
5476 5472 5469 5465 5462 5458 5454 5450 5445 5441 5436 5432 5426 5421 5415 5409 5403 5398 5393 5388 5382 5374 5368 5361 5354 5347 5341 5336 5331 5325 5319 5315 5310 5305 5300 5298 5295 5292 5289 5287 5286 5284 5282
5450 5447 5444 5441 5438 5434 5429 5424 5419 5414 5409 5404 5399 5394 5388 5383 5378 5372 5365 5359 5352 5346 5338 5331 5326 5319 5312 5307 5302 5297 5291 5286 5282 5278 5274 5271 5269 5266 5263 5261 5259 5257 5256
5425 5422 5419 5415 5411 5408 5404 5399 5394 5390 5385 5379 5374 5368 5363 5356 5350 5343 5336 5329 5322 5315 5310 5303 5298 5292 5286 5280 5274 5270 5265 5261 5257 5254 5250 5247 5245 5243 5240 5238 5236 5234 5232